sat.trackr.live / text

‹ back to catalog

KINEIS-2A

NORAD 62932 · 2025-028E

PAYLOAD ACTIVE UNKNOWN

§ Identity

Operator
Country
FR
Launch date
2025-02-08
Launch site
RLLB
Launch vehicle
Mass (kg)
RCS (m²)

External: N2YO · Heavens-Above · Gunter

§ Orbital elements

Epoch: 2026-09-22T17:53:05.214336Z

Period
97.72 min
Inclination
98.1206°
Eccentricity
0.0004080
Mean motion
14.73579415 rev/d
Perigee alt
646.8 km
Apogee alt
652.5 km
Semi-major
7,027.8 km
B*
1.1790e-4
RAAN
321.2681°
Arg perigee
199.3276°
Mean anomaly
160.7778°
Rev number
8,697

§ Raw data

KINEIS-2A1 62932U 25028E   26265.74519924  .00000716  00000+0  11790-3 0  99952 62932  98.1206 321.2681 0004080 199.3276 160.7778 14.73579415 86974

JSON: /api/v1/satellites/62932 · /tle

For live sub-satellite position, see the globe view (requires WebGL).

§ Visibility from observer

Set your observer location to see the next 7 days of passes ≥ 10°. The values pass through the URL so the page stays shareable.

No JS? Fill the form by hand. The geolocation button needs JavaScript.

§ Radio — SatNOGS DB

ModeDescriptionDownlinkUplink
BPSK S-band telemetry 2.265 GHz
FM Telemetry 400.645 MHz

2 transmitters · refreshed weekly from db.satnogs.org